Burlington, VT

10:40 AM EST on November 24, 2017 (GMT -0500)
Burlington International

Weather History for KBTV - July, 2013

Change the Weather History Date:

Wednesday, July 24, 2013

  Actual Average Record
Temperature  
Mean Temperature 63 °F 71 °F  
Max Temperature 71 °F 81 °F 95 °F (1987)
Min Temperature 54 °F 61 °F 45 °F (1912)
Degree Days  
Heating Degree Days 2 0  
Month to date heating degree days 2 8  
Since 1 June heating degree days 67 81  
Since 1 July heating degree days 2 8  
Cooling Degree Days 0 6  
Month to date cooling degree days 254 144  
Year to date cooling degree days 416 260  
Since 1 June cooling degree days 369 241  
Growing Degree Days 13 (Base 50)    
Moisture  
Dew Point 57 °F    
Average Humidity 73    
Maximum Humidity 93    
Minimum Humidity 53    
Precipitation  
Precipitation 0.27 in 0.13 in 1.15 in (1897)
Month to date precipitation 4.32 3.21  
Year to date precipitation 29.45 19.21  
Snow  
Snow 0.00 in 0.00 in 0.00 in (2002)
Month to date snowfall 0.0 0.0  
Since 1 June snowfall 0.0 0.0  
Since 1 July snowfall 0.0 0.0  
Snow Depth 0.00 in    
Sea Level Pressure  
Sea Level Pressure 29.77 in    
Wind  
Wind Speed 8 mph (NW)    
Max Wind Speed 21 mph    
Max Gust Speed 26 mph    
Visibility 10 miles    
Events Rain , Thunderstorm    
T = Trace of Precipitation, MM = Missing Value Source: NWS Daily Summary

Daily Weather History Graph

Daily Weather History Graph

Search for Another Location

Airport or City:

Trip Planner

Search our weather history database for the weather conditions in past years. The results will help you decide how hot, cold, wet, or windy it might be!

Date:

Astronomy

Jul. 24, 2013 Rise Set
Actual Time 5:31 AM EDT 8:26 PM EDT
Civil Twilight 4:56 AM EDT 9:00 PM EDT
Nautical Twilight 4:12 AM EDT 9:44 PM EDT
Astronomical Twilight 3:21 AM EDT 10:35 PM EDT
Moon 9:21 PM EDT 7:55 AM EDT
Length of Visible Light 16h 03m
Length of Day
14h 55m
Waning Gibbous, 95% of the Moon is Illuminated
Jul 24
Waning Gibbous
Jul 29
Last Quarter
Aug 6
New
Aug 14
First Quarter
Aug 20
Full

Hourly Weather History & Observations

Time (EDT) Temp. Dew Point Humidity Pressure Visibility Wind Dir Wind Speed Gust Speed Precip Events Conditions
12:23 AM 71.6 °F 66.2 °F 83% 29.56 in 10.0 mi South 5.8 mph - N/A Thunderstorm Thunderstorm
12:38 AM 71.6 °F 66.2 °F 83% 29.56 in 10.0 mi South 6.9 mph - N/A   Clear
12:54 AM 71.1 °F 66.0 °F 84% 29.55 in 10.0 mi South 6.9 mph - N/A   Clear
1:54 AM 71.1 °F 66.9 °F 87% 29.55 in 10.0 mi South 6.9 mph - N/A   Clear
2:54 AM 71.1 °F 66.0 °F 84% 29.57 in 10.0 mi South 9.2 mph - 0.00 in Rain Light Rain
3:26 AM 69.8 °F 66.2 °F 88% 29.57 in 8.0 mi South 9.2 mph - 0.03 in Rain , Thunderstorm Light Thunderstorms and Rain
3:54 AM 69.1 °F 66.9 °F 93% 29.58 in 8.0 mi Calm Calm - 0.14 in Rain , Thunderstorm Light Thunderstorms and Rain
4:13 AM 69.8 °F 66.2 °F 88% 29.56 in 10.0 mi ESE 5.8 mph - 0.03 in Rain Light Rain
4:54 AM 69.1 °F 66.9 °F 93% 29.59 in 7.0 mi SW 3.5 mph - 0.04 in Rain Rain
5:54 AM 68.0 °F 66.0 °F 93% 29.61 in 10.0 mi South 6.9 mph - 0.09 in Rain Light Rain
6:54 AM 68.0 °F 64.9 °F 90% 29.62 in 10.0 mi WSW 6.9 mph - 0.00 in   Mostly Cloudy
7:15 AM 68.0 °F 64.4 °F 88% 29.64 in 10.0 mi WNW 16.1 mph 20.7 mph N/A   Mostly Cloudy
7:54 AM 66.0 °F 60.1 °F 81% 29.67 in 10.0 mi WNW 12.7 mph - N/A   Mostly Cloudy
8:54 AM 64.9 °F 57.9 °F 78% 29.70 in 10.0 mi NNW 12.7 mph - N/A   Mostly Cloudy
9:54 AM 64.9 °F 57.0 °F 75% 29.73 in 10.0 mi North 4.6 mph - N/A   Mostly Cloudy
10:01 AM 66.2 °F 57.2 °F 73% 29.74 in 10.0 mi NW 10.4 mph - N/A   Mostly Cloudy
10:20 AM 68.0 °F 55.4 °F 64% 29.75 in 10.0 mi NW 10.4 mph - N/A   Mostly Cloudy
10:36 AM 66.2 °F 55.4 °F 68% 29.76 in 10.0 mi NW 10.4 mph - N/A   Mostly Cloudy
10:54 AM 66.9 °F 55.0 °F 66% 29.77 in 10.0 mi NNW 11.5 mph - N/A   Mostly Cloudy
11:54 AM 66.9 °F 55.0 °F 66% 29.81 in 10.0 mi NNW 15.0 mph 23.0 mph N/A   Mostly Cloudy
12:54 PM 64.9 °F 53.1 °F 65% 29.83 in 10.0 mi WNW 11.5 mph 16.1 mph N/A   Mostly Cloudy
1:18 PM 68.0 °F 53.6 °F 60% 29.83 in 10.0 mi NNW 16.1 mph - N/A   Scattered Clouds
1:54 PM 66.9 °F 51.1 °F 57% 29.85 in 10.0 mi North 13.8 mph 20.7 mph N/A   Scattered Clouds
2:54 PM 68.0 °F 50.0 °F 52% 29.87 in 10.0 mi North 16.1 mph - N/A   Mostly Cloudy
3:54 PM 64.0 °F 48.9 °F 58% 29.89 in 10.0 mi NNW 15.0 mph - N/A   Mostly Cloudy
4:54 PM 63.0 °F 48.0 °F 58% 29.92 in 10.0 mi NNW 11.5 mph - N/A   Mostly Cloudy
5:54 PM 61.0 °F 46.9 °F 60% 29.94 in 10.0 mi North 8.1 mph - N/A   Mostly Cloudy
6:54 PM 62.1 °F 46.9 °F 58% 29.95 in 10.0 mi North 9.2 mph - N/A   Mostly Cloudy
7:54 PM 60.1 °F 48.0 °F 64% 29.98 in 10.0 mi NNE 5.8 mph - N/A   Mostly Cloudy
8:54 PM 59.0 °F 48.0 °F 67% 30.00 in 10.0 mi NNE 4.6 mph - N/A   Mostly Cloudy
9:54 PM 57.0 °F 48.9 °F 74% 30.02 in 10.0 mi Calm Calm - N/A   Mostly Cloudy
10:54 PM 57.0 °F 50.0 °F 77% 30.04 in 10.0 mi Calm Calm - N/A   Mostly Cloudy
11:54 PM 57.0 °F 48.9 °F 74% 30.06 in 10.0 mi Calm Calm - N/A   Overcast